Bow Valley, Alberta

6:43 AM MDT on March 24, 2017 (GMT -0600)
Bow Valley

Weather History for CWXA - January, 2014

Change the Weather History Date:

Wednesday, January 22, 2014

  Actual Average Record
Temperature  
Mean Temperature 30 °F -  
Max Temperature 36 °F - - ()
Min Temperature 25 °F - - ()
Degree Days  
Heating Degree Days 34    
Moisture  
Dew Point 26 °F    
Average Humidity 80    
Maximum Humidity 88    
Minimum Humidity 69    
Precipitation  
Precipitation 0.01 in - - ()
Sea Level Pressure  
Sea Level Pressure 30.31 in    
Wind  
Wind Speed 4 mph ()    
Max Wind Speed 12 mph    
Max Gust Speed 20 mph    
T = Trace of Precipitation, MM = Missing Value Source: Averaged Metar Reports

Daily Weather History Graph

Daily Weather History Graph

Search for Another Location

Airport or City:

Trip Planner

Search our weather history database for the weather conditions in past years. The results will help you decide how hot, cold, wet, or windy it might be!

Date:

Astronomy

Jan. 22, 2014 Rise Set
Actual Time 8:30 AM MST 5:14 PM MST
Civil Twilight 7:53 AM MST 5:51 PM MST
Nautical Twilight 7:12 AM MST 6:31 PM MST
Astronomical Twilight 6:33 AM MST 7:11 PM MST
Moon No Moon Rise 10:47 AM MST (1/22)
Length of Visible Light 9h 58m
Length of Day
8h 43m
Waning Gibbous, 65% of the Moon is Illuminated
Jan 22
Waning Gibbous
Jan 23
Last Quarter
Jan 30
New
Feb 6
First Quarter
Feb 14
Full

Hourly Weather History & Observations

Time (MST) Temp. Windchill Dew Point Humidity Pressure Visibility Wind Dir Wind Speed Gust Speed Precip Events Conditions
12:00 AM 27.1 °F - 19.6 °F 73% 30.29 in - West 1.2 mph - N/A   Unknown
1:00 AM 27.9 °F - 19.2 °F 70% 30.27 in - Calm Calm - N/A   Unknown
2:00 AM 28.8 °F - 20.5 °F 71% 30.26 in - North 1.2 mph - N/A   Unknown
3:00 AM 28.0 °F - 21.9 °F 78% 30.25 in - SSE 1.2 mph - N/A   Unknown
4:00 AM 27.7 °F 22.4 °F 22.8 °F 82% 30.25 in - WSW 4.6 mph - N/A   Unknown
5:00 AM 28 °F - 24 °F 77% 30.26 in - WSW 4.6 mph - -  
5:00 AM 29.3 °F 24.3 °F 23.7 °F 80% 30.26 in - WSW 4.6 mph - N/A   Unknown
6:00 AM 28.4 °F 18.5 °F 24.3 °F 84% 30.25 in - West 11.5 mph 17.3 mph N/A   Unknown
7:00 AM 28.2 °F 22.0 °F 24.4 °F 86% 30.27 in - WSW 5.8 mph - N/A   Unknown
8:00 AM 28.8 °F 19.0 °F 24.6 °F 84% 30.26 in - WSW 11.5 mph 19.6 mph N/A   Unknown
9:00 AM 28.4 °F 20.4 °F 24.1 °F 84% 30.27 in - West 8.1 mph 17.3 mph N/A   Unknown
10:00 AM 29.7 °F 20.7 °F 24.8 °F 82% 30.30 in - West 10.4 mph 17.3 mph N/A   Unknown
11:00 AM 32 °F - 26 °F 69% 30.30 in - WSW 8.1 mph - -  
11:00 AM 31.6 °F 24.4 °F 25.7 °F 79% 30.30 in - WSW 8.1 mph - N/A   Unknown
12:00 PM 29.7 °F 26.1 °F 26.6 °F 88% 30.33 in - NNW 3.5 mph - N/A   Unknown
1:00 PM 30.7 °F - 27.7 °F 88% 30.32 in - ENE 2.3 mph - 0.01 in   Unknown
2:00 PM 33.4 °F 30.4 °F 29.3 °F 85% 30.32 in - ENE 3.5 mph - N/A   Unknown
3:00 PM 35.1 °F 32.2 °F 30.0 °F 82% 30.32 in - East 3.5 mph - N/A   Unknown
4:00 PM 34.3 °F - 28.8 °F 80% 30.34 in - East 2.3 mph - N/A   Unknown
5:00 PM 33 °F - 28 °F 77% 30.36 in - ESE 1.2 mph - -  
5:00 PM 32.9 °F - 28.4 °F 84% 30.36 in - ESE 1.2 mph - N/A   Unknown
6:00 PM 34.3 °F 30.2 °F 28.0 °F 78% 30.37 in - WSW 4.6 mph - N/A   Unknown
7:00 PM 35.1 °F 31.0 °F 29.3 °F 80% 30.38 in - West 4.6 mph - N/A   Unknown
8:00 PM 36.0 °F 30.3 °F 29.3 °F 77% 30.37 in - WSW 6.9 mph - N/A   Unknown
9:00 PM 33.4 °F 26.6 °F 26.8 °F 77% 30.37 in - SW 8.1 mph - N/A   Unknown
10:00 PM 31.5 °F 26.8 °F 27.1 °F 84% 30.38 in - SW 4.6 mph - N/A   Unknown
11:00 PM 32 °F - 27 °F 74% 30.37 in - SW 5.8 mph - -  
11:00 PM 31.6 °F 26.0 °F 26.8 °F 82% 30.37 in - SW 5.8 mph - N/A   Unknown